www.pogodaiklimat.ru

Погода и климат >> Архив погоды >> Таиланд >> Бангна Агромет


ПОГОДА в Бангна Агромете

  • Прогноз погоды в Бангна Агромете
  • Монитор погоды в Бангна Агромете

АРХИВ ПОГОДЫ в Бангна Агромете

Время (UTC), дата Ветер
(напр.,м/с)
 
Видим.   Явления Облачность Т
(С)
Тd
(С)
f
(%)
Тe
(С)
Тes
(С)
Комфортность P
(гПа)
Po
(гПа)
Тmin
(С)
Tmax
(С)
R
(мм)
R24
(мм)
S
(см)
09 16.07 ЮЗ 5 10 км 6/5 600 м
[Cu med, cong Ac lent Cs]
+33.5 +25.0 61 +47 +49 опасность
перегрева
1002.4 1002.1
12 16.07 Ю 5 10 км 6/4 600 м
[Cu med, cong Ac lent Cs]
+31.0 +24.7 69 +44 +44 опасность
перегрева
1003.3 1003.0 +35.2
15 16.07 ЮЗ 4 10 км 3/1 600 м
[Cu hum Cs]
+30.4 +25.8 76 +45 +45 опасность
перегрева
1005.2 1004.9
18 16.07 штиль 0 10 км 4/1 600 м
[Cu hum Cs]
+29.5 +23.4 70 +40 +40 очень
душно
1005.5 1005.2
21 16.07 штиль 0 10 км 5/1 600 м
[Cu hum Cs]
+28.2 +23.5 76 +38 +38 очень
душно
1004.1 1003.8
00 17.07 штиль 0 10 км 8/4 600 м
[Sc Ac lent Cs]
+28.3 +24.3 79 +40 +40 очень
душно
1004.6 1004.3 +27.4
03 17.07 ЮЗ 5 10 км 8/3 600 м
[Cu med, cong Ac lent Cs]
+32.6 +23.7 60 +44 +48 опасность
перегрева
1005.3 1005.0
06 17.07 Ю 7 10 км 8/4 600 м
[Cu med, cong Ac lent Cs]
+32.8 +25.2 64 +47 +49 опасность
перегрева
1004.3 1004.0
09 17.07 ЮЗ 8 10 км 8/5 600 м
[Cu med, cong Ac lent Cs]
+33.0 +24.8 62 +46 +47 опасность
перегрева
1002.2 1001.9
12 17.07 ЮЗ 4 10 км 8/5 600 м
[Cu Sc Ac lent Cs]
+30.8 +24.7 70 +44 +44 опасность
перегрева
1002.6 1002.3 +34.0
15 17.07 ЮЗ 5 10 км 8/3 600 м
[Sc Ac trans Cs]
+30.4 +24.4 70 +42 +42 опасность
перегрева
1005.0 1004.7
18 17.07 Ю 2 10 км 8/3 600 м
[Sc Ac und Cs]
+29.2 +23.4 71 +40 +40 очень
душно
1004.8 1004.5
21 17.07 СЗ 2 10 км 6/0
[Ac lent Cs]
+28.0 +23.6 77 +38 +38 очень
душно
1003.3 1003.0
00 18.07 штиль 0 10 км 8/3 600 м
[Sc Ac trans Cs]
+27.6 +24.6 84 +39 +40 очень
душно
1004.3 1004.0 +27.0
03 18.07 Ю 5 10 км 8/3 600 м
[Cu med, cong Ac lent Cs]
+32.1 +23.3 60 +43 +47 опасность
перегрева
1004.8 1004.6
06 18.07 ЮВ 6 10 км 8/3 600 м
[Cu med, cong Ac lent Cs]
+33.5 +24.6 60 +47 +50 опасность
перегрева
1004.1 1003.8
09 18.07 Ю 6 10 км 4/3 600 м
[Cu med, cong Ac lent Cs]
+33.5 +24.7 60 +47 +49 опасность
перегрева
1002.0 1001.7
12 18.07 Ю 5 10 км 6/3 600 м
[Cb cap Ac lent Cs]
+30.5 +25.6 75 +45 +45 опасность
перегрева
1003.6 1003.3 +34.4
15 18.07 Ю 5 10 км 5/3 600 м
[Cu med, cong Ac lent Cs]
+30.5 +24.0 68 +42 +42 опасность
перегрева
1005.3 1005.0
18 18.07 СЗ 4 10 км 8/1 600 м
[Cu med, cong Ac und Cs]
+29.6 +24.9 76 +42 +42 опасность
перегрева
1004.3 1004.0
21 18.07 штиль 0 10 км 3/1 600 м
[Cu hum Ac lent Cs]
+28.3 +23.8 77 +39 +39 очень
душно
1003.6 1003.3
00 19.07 СЗ 4 10 км 4/1 600 м
[Cu med, cong Ac lent Cs]
+28.2 +23.4 75 +38 +39 очень
душно
1004.9 1004.6 +27.6
03 19.07 ЮЗ 3 10 км 6/3 600 м
[Cu hum Ac lent Cs]
+33.1 +24.1 59 +45 +52 опасность
перегрева
1006.0 1005.7
06 19.07 Ю 7 10 км 8/4 600 м
[Cu med, cong Ac lent Cs]
+34.0 +25.1 60 +48 +50 опасность
перегрева
1005.1 1004.8
09 19.07 ЮЗ 5 10 км 6/3 600 м
[Cu med, cong Cs]
+34.5 +24.9 58 +48 +51 опасность
перегрева
1002.5 1002.3
12 19.07 Ю 6 10 км 9/6 600 м
[Cu Sc Ac lent Cs]
+30.5 +26.0 77 +46 +46 опасность
перегрева
1003.9 1003.6 +34.7
15 19.07 ЮЗ 4 10 км 8/6 600 м
[Cu Sc Ac lent Cs]
+30.0 +24.3 72 +42 +42 опасность
перегрева
1007.0 1006.7
18 19.07 СЗ 2 10 км 8/3 600 м
[Sc Ac lent Cs]
+27.8 +24.8 84 +40 +40 очень
душно
1006.1 1005.8
21 19.07 штиль 0 10 км 3/0
[Cs]
+27.2 +25.2 89 +39 +39 очень
душно
1005.0 1004.7
00 20.07 штиль 0 10 км 8/1 600 м
[Cu hum Ac lent Cs]
+27.0 +25.1 89 +39 +40 очень
душно
1006.4 1006.1 +26.3
03 20.07 ЮЗ 3 10 км 8/6 600 м
[Cu med, cong Ac lent Cs]
+32.5 +25.0 65 +46 +50 опасность
перегрева
1007.1 1006.8
06 20.07 Ю 6 10 км 8/3 600 м
[Cu med, cong Ac lent Cs]
+34.5 +25.4 59 +49 +53 опасность
перегрева
1006.2 1005.9
09 20.07 Ю 7 10 км 9/3 600 м
[Cu med, cong Ac lent Cs]
+32.4 +24.4 63 +45 +46 опасность
перегрева
1004.6 1004.3
12 20.07 Ю 5 10 км 10/3 600 м
[Cu med, cong Ac lent Cs]
+30.3 +25.5 76 +45 +45 опасность
перегрева
1005.5 1005.2 +34.9
15 20.07 Ю 7 10 км 9/1 600 м
[Cu med, cong Ac As Cs]
+29.7 +26.2 82 +45 +45 опасность
перегрева
1007.0 1006.7
18 20.07 ЮЗ 6 10 км 8/1 600 м
[Cu hum Ac As Cs]
+29.6 +25.2 77 +43 +43 опасность
перегрева
1006.7 1006.4
21 20.07 штиль 0 10 км 9/3 600 м
[Sc Ac As Cs]
+29.3 +24.6 76 +42 +42 опасность
перегрева
1006.3 1006.0
00 21.07 штиль 0 8000 м слаб. дождь 9/3 600 м
[Cu med, cong Ac As Cs]
+29.0 +25.0 79 +42 +42 опасность
перегрева
1008.1 1007.8 +28.5 0.0
03 21.07 штиль 0 10 км {дождь} 8/3 600 м
[Cu med, cong Ac lent Cs]
+31.7 +25.2 69 +46 +55 опасность
перегрева
1008.5 1008.2 0.0
06 21.07 З 3 10 км {дождь} 8/3 600 м
[Cu med, cong Ac As Cs]
+32.4 +24.4 63 +45 +53 опасность
перегрева
1007.6 1007.3 0.0
09 21.07 Ю 5 10 км 9/4 600 м
[Cu Sc Ac As Cs]
+32.4 +24.9 65 +46 +47 опасность
перегрева
1005.8 1005.5
12 21.07 Ю 3 9000 м дымка 8/3 600 м
[Cu med, cong Ac As Cs]
+28.0 +23.2 75 +38 +38 очень
душно
1006.6 1006.3 +33.8
15 21.07 Ю 3 10 км 8/3 600 м
[Cu med, cong Ac lent Cs]
+28.5 +23.9 76 +39 +39 очень
душно
1008.5 1008.2
18 21.07 штиль 0 10 км 8/3 600 м
[Cu med, cong Ac lent Cs]
+28.8 +23.1 71 +39 +39 очень
душно
1007.8 1007.5
21 21.07 штиль 0 10 км 8/1 600 м
[Cu med, cong Ac lent Cs]
+27.9 +23.7 78 +38 +38 очень
душно
1007.4 1007.1
00 22.07 штиль 0 10 км 8/1 600 м
[Cu med, cong Ac lent Cs]
+27.2 +25.1 88 +39 +40 очень
душно
1008.6 1008.3 +26.4
03 22.07 штиль 0 10 км 8/6 600 м
[Cu med, cong Ac lent Cs]
+32.2 +25.1 66 +46 +52 опасность
перегрева
1009.2 1008.9
06 22.07 ЮЗ 4 10 км 8/3 600 м
[Cu med, cong Ac lent Cs]
+35.4 +25.5 57 +50 +57 опасность
перегрева
1007.5 1007.2
09 22.07 ЮЗ 5 10 км 8/3 600 м
[Cu med, cong Ac lent Cs]
+32.9 +25.3 64 +47 +49 опасность
перегрева
1005.3 1005.0
12 22.07 Ю 5 10 км 8/3 600 м
[Sc Ac lent Cs]
+30.8 +25.0 71 +44 +44 опасность
перегрева
1005.8 1005.5 +35.7
15 22.07 ЮЗ 5 10 км 8/0
[Cs]
+29.9 +25.8 79 +45 +45 опасность
перегрева
1007.8 1007.5
18 22.07 ЮЗ 4 10 км 9/6 600 м
[Cu Sc Cs]
+29.7 +26.8 84 +46 +46 опасность
перегрева
1007.8 1007.5
21 22.07 Ю 2 10 км 9/6 600 м
[Sc Cs]
+29.5 +25.2 78 +43 +43 опасность
перегрева
1006.7 1006.4
00 23.07 СЗ 3 10 км 9/5 600 м
[Sc Ac lent Cs]
+29.0 +24.7 78 +41 +42 опасность
перегрева
1007.8 1007.5 +28.6
03 23.07 ЮЗ 5 10 км 6/3 600 м
[Cu med, cong Ac lent Cs]
+33.4 +23.5 56 +44 +49 опасность
перегрева
1008.4 1008.1
06 23.07 ЮЗ 8 10 км 9/4 600 м
[Cu med, cong Ac lent Cs]
+34.5 +24.6 56 +47 +48 опасность
перегрева
1006.2 1005.9

 

Местоположение метеостанции Бангна Агромет (Таиланд): широта 13.67 долгота 100.62 высота над уровнем моря 6 м.

В архиве по умолчанию представлена погода в Бангна Агромете за последнюю неделю. Архивные данные за месяц целиком и за предыдущие месяцы, начиная с января 2011 года, Вы можете получить, выбрав интересующий диапазон дат из раскрывающегося списка и нажав кнопку "Ввод!".


*Определитесь, кто Вы:
робот инопланетянин человек

Внимание! Время в таблицах - всемирное. Для получения местного времени необходимо прибавить поправку, которая равна 7 ч.

Смотрите также архив погоды в соседних городах и на ближайших метеорологических станциях:

Погода в Бангкоке 2 (Таиланд) (6 км)
Погода в Бангкоке (Таиланд) (9 км)
Погода в Аэропорту Суварнабхуми (Таиланд) (15 км)
Погода в Самутрудкан Агромете (Таиланд) (22 км)
Погода в Дон Муанг (Таиланд) (28 км)
Погода в Бангкок Пилот (Таиланд) (32 км)
Погода в Патхумтхани (Таиланд) (48 км)
Погода в Чонбури (Таиланд) (51 км)
Погода в Ратбури (Таиланд) (51 км)
Погода на Ко Сичан (Таиланд) (59 км)

Пояснения к столбцам:

Ветер - указаны скорость ветра в м/с - средняя за 10 мин, порывы в срок и между сроками (в фигурных скобках) и направление, откуда дует ветер: С - северный, СВ - северо-восточный, В - восточный, ЮВ - юго-восточный, Ю - южный, ЮЗ - юго-западный, З - западный, СЗ - северо-западный.
Видимость - горизонтальная дальность видимости в метрах или километрах. При видимости от 1 до 10 км при отсутствии осадков обычно наблюдается дымка, при ухудшении видимости до 1 км и менее - туман. В сухую погоду видимость может ухудшаться дымом, пылью или мглою.
Явления - указаны атмосферные явления, наблюдавшиеся в срок или в последний час перед сроком; фигурными скобками обозначены явления, наблюдавшиеся между сроками (за 1-3 часа до срока); квадратными скобками обозначены град или гололедные отложения с указанием их диаметра в мм.
Облачность - указаны через наклонную черту общая и нижняя облачность в баллах и высота нижней границы облаков в метрах; квадратными скобками обозначены формы облаков: Ci - перистые, Cs - перисто-слоистые, Cc - перисто-кучевые, Ac - высококучевые, As - высокослоистые, Sc - слоисто-кучевые, Ns - слоисто-дождевые, Cu - кучевые, Cb - кучево-дождевые. Подробнее классификацию облаков см. в Атласе облаков (PDF).
T - Температура воздуха - температура, измеренная на высоте 2 м над землей.
Td - Температура точки росы - температура, при понижении до которой содержащийся в воздухе водяной пар достигнет насыщения.
f - Относительная влажность воздуха - влажноcть воздуха, измеренная на высоте 2 м над землей.
Te - Эффективная температура - температура, которую ощущает одетый по сезону человек в тени. Характеристика душности погоды. При расчете учитывается влияние влажности воздуха и скорости ветра на теплоощущения человека.
Tes - Эффективная температура на солнце - температура, которую ощущает человек, с поправкой на солнечный нагрев. Характеристика знойности погоды. Зависит от высоты солнца над горизонтом, облачности и скорости ветра. Ночью, в пасмурную погоду, а также при ветре 12 м/с и более поправка равна нулю.
P - Атмосферное давление - приведенное к уровню моря атмосферное давление.
Po - Атмосферное давление - измеренное на уровне метеостанции атмосферное давление.
Tmin - Минимальная температура - минимум температуры воздуха на высоте 2 м над землей.
Tmax - Максимальная температура - максимум температуры воздуха на высоте 2 м над землей.
R - Количество осадков - Количество выпавших осадков за период времени, мм. При наведении курсора мыши на число - период времени, за который выпало указанное количество осадков.
R24 - Количество осадков - Количество выпавших осадков за 24 часа, мм.
S - Снежный покров - Высота снежного покрова, см. При наведении курсора мыши на число - состояние снежного покрова и степень покрытия местности в баллах.